Dewpoint
53 53 53 53 53 53 51 50 48 47 47 47 46 45 47 47 50 47 48 48 49 49 49 49 50 50 51 50 50 50 49 49 48 47 47 47 45 44 45 44 44 45
53 53 54 53 53 53 51 50 49 48 48 47 47 47 46 49 49 48 48 49 48 48 48 49 49 49 49 49 48 48 47 48 48 48 46 46 45 45 44 44 44 43
53 53 53 53 53 52 52 51 49 49 49 49 48 48 48 50 48 47 48 48 48 48 48 48 48 49 49 48 47 48 48 47 47 47 48 46 45 45 44 44 44 44
53 52 53 53 53 52 52 51 49 49 48 49 49 49 50 51 49 47 48 52 47 47 47 48 49 48 48 48 48 47 47 47 47 47 47 46 46 45 44 46 46 44
53 52 53 53 54 53 53 52 51 50 50 50 49 49 50 50 48 47 48 48 47 47 47 48 48 48 48 48 48 48 48 48 46 46 46 45 45 46 45 45 44 43
53 53 53 53 53 52 52 52 51 51 50 49 50 50 49 49 48 47 48 47 47 47 47 47 47 48 48 48 48 49 48 48 46 46 45 44 45 46 46 45 44 43
54 54 54 54 54 53 52 52 53 52 51 50 50 50 50 50 49 48 48 48 47 48 47 47 47 47 47 47 47 47 46 47 47 46 45 44 46 45 45 44 44 44
55 55 55 54 54 54 54 54 53 52 52 51 50 50 50 51 50 49 49 48 47 47 47 47 47 47 47 47 47 47 45 47 47 46 45 45 44 44 44 45 44 44
54 54 55 55 55 55 54 54 54 53 53 52 51 50 50 51 51 49 50 49 48 48 47 47 47 47 47 47 47 47 46 46 47 47 46 45 44 44 44 44 43 44
54 54 54 55 54 55 54 55 54 54 55 53 52 51 50 50 51 50 50 50 49 49 49 48 48 48 48 47 48 47 47 47 46 46 46 46 45 44 44 44 43 43
53 54 54 54 55 55 55 55 55 55 55 54 54 53 52 52 52 51 51 50 50 49 49 49 49 48 48 48 48 48 48 47 47 46 46 46 46 45 47 44 43 42
53 53 54 54 54 54 55 55 55 55 55 55 55 54 53 53 52 51 52 51 50 50 50 49 49 49 49 48 48 48 48 47 48 47 47 46 46 46 46 45 44 43
52 52 52 52 53 53 54 55 55 55 55 54 54 54 53 53 53 52 52 52 52 53 52 51 50 50 49 49 49 49 48 48 47 48 47 46 47 47 46 45 44 44
52 52 51 51 52 53 53 53 53 53 53 53 54 54 54 54 54 53 53 54 54 54 53 53 52 52 51 50 50 49 49 49 48 48 47 47 47 47 46 46 45 45
51 51 51 52 53 54 54 53 54 54 53 54 54 53 53 53 53 53 52 53 53 53 54 54 54 53 53 52 51 50 49 49 49 48 48 47 46 46 46 46 46 45
51 50 52 52 53 53 54 54 54 52 52 53 53 53 54 52 52 53 53 53 53 53 53 53 53 53 52 49 49 51 50 50 50 49 49 48 47 46 46 45 45 45
50 51 51 53 53 53 53 53 51 51 53 53 53 52 50 52 53 53 53 53 53 53 53 52 53 53 49 46 45 46 50 50 50 49 49 49 48 47 46 45 44 44
51 51 51 53 53 53 53 52 52 52 52 52 51 50 47 51 51 52 52 51 51 51 52 52 52 50 47 46 45 44 46 50 50 50 49 49 48 47 47 45 44 43
47 49 50 49 50 51 50 49 51 51 50 49 50 51 50 50 52 50 50 50 51 51 51 51 51 48 46 45 44 44 43 46 50 49 49 49 48 47 46 45 43 43
45 46 45 45 45 44 45 46 47 49 48 48 48 48 50 50 49 50 50 50 50 50 50 49 49 48 45 44 44 43 42 43 49 49 48 48 48 47 46 44 43 42
41 43 42 41 41 41 40 40 42 40 41 41 43 45 47 47 46 47 47 47 48 48 47 47 49 47 43 42 41 41 41 42 45 47 47 46 46 46 44 43 42 43
39 39 39 39 38 37 38 38 37 37 38 40 39 39 39 40 40 42 44 44 44 43 44 46 45 43 40 40 40 41 41 43 44 44 43 43 43 42 42 43 42 43
38 38 37 36 36 36 36 36 36 35 36 38 36 36 37 38 38 40 41 42 42 44 44 45 43 39 38 40 40 40 42 42 42 42 42 41 40 41 42 42 43 43
38 36 36 36 36 34 35 35 35 35 35 37 34 35 36 37 38 38 38 39 41 42 43 43 42 38 37 38 38 39 42 43 42 42 40 40 38 37 38 40 42 46
38 37 36 36 35 35 36 36 36 35 35 37 36 36 37 37 39 38 36 37 37 40 46 43 37 36 37 37 38 39 42 42 41 40 39 37 36 35 35 36 38 40
40 40 38 37 36 36 36 36 37 36 36 36 36 37 37 37 37 36 36 35 35 35 36 35 34 34 37 38 39 39 40 41 40 39 38 36 34 33 33 32 33 33